| time (UTC) | temp F | wind direction | speed MPH | gust MPH | rain 1hr in | rain 24hr in | rain mn in | humidity % | barometer mb |
| 20260507135502 | 73 | 50 | 3.0 | 0.0 | 0.00 | 0.00 | 0.00 | 55 | 1010.0 |
| 20260507125502 | 74 | 217 | 1.0 | 0.0 | 0.00 | 0.00 | 0.00 | 47 | 1011.0 |
| 20260507115502 | 74 | 233 | 3.0 | 0.0 | 0.00 | 0.00 | 0.00 | 47 | 1011.0 |
| 20260507105501 | 73 | 298 | 4.0 | 0.0 | 0.00 | 0.00 | 0.00 | 46 | 1011.0 |
| 20260507095502 | 73 | 295 | 5.0 | 0.0 | 0.00 | 0.00 | 0.00 | 49 | 1011.0 |
| 20260507085502 | 72 | 290 | 5.0 | 0.0 | 0.00 | 0.00 | 0.00 | 52 | 1011.0 |
| 20260507075502 | 70 | 277 | 6.0 | 0.0 | 0.00 | 0.00 | 0.00 | 56 | 1011.0 |
| 20260507065502 | 69 | 260 | 6.0 | 0.0 | 0.00 | 0.00 | 0.00 | 59 | 1011.0 |
| 20260507055503 | 67 | 251 | 6.0 | 0.0 | 0.00 | 0.00 | 0.00 | 64 | 1011.0 |
| 20260507045502 | 65 | 247 | 5.0 | 0.0 | 0.00 | 0.00 | 0.00 | 68 | 1011.0 |
| 20260507035502 | 62 | 259 | 3.0 | 0.0 | 0.00 | 0.00 | 0.00 | 73 | 1011.0 |
| 20260507025502 | 60 | 285 | 2.0 | 0.0 | 0.00 | 0.00 | 0.00 | 77 | 1011.0 |
| 20260507015502 | 57 | 320 | 2.0 | 0.0 | 0.00 | 0.00 | 0.00 | 83 | 1011.0 |
| 20260507005502 | 55 | 321 | 3.0 | 0.0 | 0.00 | 0.00 | 0.00 | 88 | 1011.0 |
| 20260506235502 | 55 | 315 | 2.0 | 0.0 | 0.00 | 0.00 | 0.00 | 89 | 1011.0 |
| 20260506225501 | 56 | 318 | 2.0 | 0.0 | 0.00 | 0.00 | 0.00 | 89 | 1011.0 |
| 20260506215502 | 56 | 5 | 1.0 | 0.0 | 0.00 | 0.00 | 0.00 | 87 | 1010.0 |
| 20260506205501 | 57 | 168 | 2.0 | 0.0 | 0.00 | 0.00 | 0.00 | 86 | 1010.0 |
| 20260506195502 | 57 | 155 | 5.0 | 0.0 | 0.00 | 0.00 | 0.00 | 82 | 1011.0 |
| 20260506185502 | 58 | 145 | 5.0 | 0.0 | 0.00 | 0.00 | 0.00 | 77 | 1011.0 |
| 20260506175502 | 58 | 136 | 6.0 | 0.0 | 0.00 | 0.00 | 0.00 | 70 | 1012.0 |
| 20260506165502 | 59 | 136 | 7.0 | 0.0 | 0.00 | 0.00 | 0.00 | 67 | 1013.0 |
| 20260506155502 | 60 | 131 | 6.0 | 0.0 | 0.00 | 0.00 | 0.00 | 65 | 1013.0 |
| 20260506145502 | 62 | 136 | 6.0 | 0.0 | 0.00 | 0.00 | 0.00 | 63 | 1013.0 |